Hourly Data Report for December 02, 2006

TORONTO CITY
ONTARIO

43°40'00.000" N
79°24'00.000" W
112.50 m
6158355
71508
XTO

Download Data

Hourly Data (December 2006)
Hourly Data Report for December 2, 2006
TIME
LST
Temp Definition
°C
Dew Point Definition
°C
Rel Hum Definition
%
Precip. Amount Definition
mm

Wind Dir Definition
10's deg

Wind Spd Definition
km/h
Visibility Definition
km
Stn Press Definition
kPa
Hmdx Definition


Wind Chill Definition


Weather Definition


00:00 2.0 -3.1 69   LegendMM LegendMM   99.61     LegendNANA
01:00 1.4 -2.7 74   LegendMM LegendMM   99.75     LegendNANA
02:00 1.2 -3.8 69   LegendMM LegendMM   99.92     LegendNANA
03:00 1.3 -4.2 67   LegendMM LegendMM   100.08     LegendNANA
04:00 1.5 -3.3 70   LegendMM LegendMM   100.12     LegendNANA
05:00 1.7 -3.6 68   LegendMM LegendMM   100.22     LegendNANA
06:00 1.7 -3.0 71   LegendMM LegendMM   100.32     LegendNANA
07:00 1.7 -3.3 69   LegendMM LegendMM   100.46     LegendNANA
08:00 0.6 -1.5 86   LegendMM LegendMM   100.56     LegendNANA
09:00 1.2 -2.1 79   LegendMM LegendMM   100.65     LegendNANA
10:00 1.7 -1.8 78   LegendMM LegendMM   100.75     LegendNANA
11:00 2.2 -2.4 72   LegendMM LegendMM   100.83     LegendNANA
12:00 2.2 -2.2 73   LegendMM LegendMM   100.88     LegendNANA
13:00 2.9 -2.6 67   LegendMM LegendMM   100.91     LegendNANA
14:00 2.8 -4.6 58   LegendMM LegendMM   100.97     LegendNANA
15:00 2.7 -4.1 61   LegendMM LegendMM   101.04     LegendNANA
16:00 2.8 -4.0 61   LegendMM LegendMM   101.15     LegendNANA
17:00 2.6 -3.1 66   LegendMM LegendMM   101.23     LegendNANA
18:00 2.1 -3.9 64   LegendMM LegendMM   101.29     LegendNANA
19:00 1.5 -4.2 66   LegendMM LegendMM   101.35     LegendNANA
20:00 1.5 -3.9 67   LegendMM LegendMM   101.38     LegendNANA
21:00 1.1 -3.9 69   LegendMM LegendMM   101.35     LegendNANA
22:00 0.7 -3.7 72   LegendMM LegendMM   101.37     LegendNANA
23:00 0.6 -3.0 77   LegendMM LegendMM   101.36     LegendNANA

Notes on Data Quality.

Legend

  • E = Estimated
  • M = Missing
  • NA = Not Available*
  • [empty] = Indicates an unobserved value
Date modified: